Baker, MT

6:01 AM MDT on May 24, 2017 (GMT -0600)
Baker Municipal

Weather History for KBHK - August, 2012

Change the Weather History Date:

Sunday, August 19, 2012

  Actual Average Record
Temperature  
Mean Temperature 65 °F -  
Max Temperature 84 °F 88 °F 93 °F (2001)
Min Temperature 48 °F 64 °F 39 °F (2002)
Growing Degree Days 15 (Base 50)    
Moisture  
Dew Point 38 °F    
Average Humidity 40    
Maximum Humidity 71    
Minimum Humidity 17    
Precipitation  
Precipitation 0.00 in - - ()
Sea Level Pressure  
Sea Level Pressure 30.05 in    
Wind  
Wind Speed 3 mph (ESE)    
Max Wind Speed 12 mph    
Max Gust Speed -    
Visibility 10 miles    
Events      
Averages and records for this station are not official NWS values.
T = Trace of Precipitation, MM = Missing Value Source: NWS Daily Summary

Daily Weather History Graph

Daily Weather History Graph

Search for Another Location

Airport or City:

Trip Planner

Search our weather history database for the weather conditions in past years. The results will help you decide how hot, cold, wet, or windy it might be!

Date:

Astronomy

Aug. 19, 2012 Rise Set
Actual Time 6:01 AM MDT 7:58 PM MDT
Civil Twilight 5:29 AM MDT 8:30 PM MDT
Nautical Twilight 4:49 AM MDT 9:10 PM MDT
Astronomical Twilight 4:05 AM MDT 9:54 PM MDT
Moon 8:31 AM MDT (8/19) 8:34 PM MDT (8/19)
Length of Visible Light 15h 01m
Length of Day
13h 57m
Waxing Crescent, 5% of the Moon is Illuminated
Aug 19
Waxing Crescent
Aug 24
First Quarter
Aug 31
Full
Sep 8
Last Quarter
Sep 15
New

Hourly Weather History & Observations

Time (MDT) Temp. Dew Point Humidity Pressure Visibility Wind Dir Wind Speed Gust Speed Precip Events Conditions
12:51 AM 53.1 °F 39.0 °F 59% 30.11 in 10.0 mi Calm Calm - N/A   Clear
1:51 AM 52.0 °F 39.9 °F 63% 30.10 in 10.0 mi East 3.5 mph - N/A   Clear
2:51 AM 52.0 °F 39.9 °F 63% 30.09 in 10.0 mi Calm Calm - N/A   Clear
4:51 AM 51.1 °F 39.9 °F 66% 30.09 in 10.0 mi Calm Calm - N/A   Clear
5:51 AM 51.1 °F 39.9 °F 66% 30.09 in 10.0 mi Calm Calm - N/A   Clear
6:51 AM 48.9 °F 39.9 °F 71% 30.11 in 10.0 mi Calm Calm - N/A   Clear
7:51 AM 59.0 °F 43.0 °F 55% 30.11 in 10.0 mi ENE 3.5 mph - N/A   Clear
8:51 AM 70.0 °F 41.0 °F 35% 30.10 in 10.0 mi Calm Calm - N/A   Clear
9:51 AM 75.9 °F 37.9 °F 25% 30.09 in 10.0 mi Calm Calm - N/A   Clear
10:51 AM 77.0 °F 37.9 °F 24% 30.08 in 10.0 mi ESE 3.5 mph - N/A   Clear
11:51 AM 79.0 °F 37.9 °F 23% 30.08 in 10.0 mi East 8.1 mph - N/A   Partly Cloudy
12:51 PM 80.1 °F 37.0 °F 21% 30.06 in 10.0 mi Variable 6.9 mph - N/A   Clear
2:51 PM 82.0 °F 35.1 °F 18% 30.02 in 10.0 mi Calm Calm - N/A   Clear
3:51 PM 82.0 °F 33.1 °F 17% 30.01 in 10.0 mi West 8.1 mph - N/A   Clear
4:51 PM 82.9 °F 34.0 °F 17% 29.99 in 10.0 mi NE 6.9 mph - N/A   Clear
5:51 PM 82.0 °F 34.0 °F 18% 29.98 in 10.0 mi ESE 6.9 mph - N/A   Clear
6:51 PM 80.1 °F 34.0 °F 19% 29.98 in 10.0 mi East 9.2 mph - N/A   Clear
7:51 PM 71.1 °F 37.9 °F 30% 29.98 in 10.0 mi East 8.1 mph - N/A   Clear
8:51 PM 64.0 °F 39.0 °F 40% 29.99 in 10.0 mi SE 3.5 mph - N/A   Clear
9:51 PM 61.0 °F 37.0 °F 41% 30.00 in 10.0 mi ESE 5.8 mph - N/A   Clear
10:51 PM 59.0 °F 39.0 °F 48% 30.00 in 10.0 mi SE 9.2 mph - N/A   Clear
11:51 PM 57.0 °F 39.0 °F 51% 30.00 in 10.0 mi SSE 11.5 mph - N/A   Clear